TITAN 3C TRANSTAGE DEB *, 34166

Orbit data source: Space-Track

TITAN 3C TRANSTAGE DEB *, 34166 is space debris in HEO originally from a launch on Tue, 21 Dec 1965 UTC launched from the Air Force Eastern Test Range (AFETR). Debris objects in space refer to the collection of defunct objects orbiting the Earth. Examples of debris include non-operational satellites, rocket bodies, and fragments generated from explosions, collisions, or faulty payload assembly.

Loading next visibility...
Identifier
34166, 1965-108CZ
Orbit
HEO
Country
Flag of USUS
Related business
Manufacturer
Unknown
Mission
Spacecraft
Bus & Motor
Unknown
Mass
Unknown
Launch date (UTC)
1965-12-21 (60 years ago)
Launch vehicle
Unknown
Launch site
Air Force Eastern Test Range (AFETR)
Object type
Payload
Rocket body
Debris
Shape & HBR
Unknown shape, 0.1 m
Radar Cross Section
Small (<0.1 m²)

Expand to show TLE details & history
Last TLE update: 2 weeks ago

TLE from 2 weeks ago
0 TITAN 3C TRANSTAGE DEB *
1 34166U 65108CZ  25278.43354041  .00000044  00000-0  10473-3 0  9994
2 34166  25.3574 257.2852 7196645 182.7076 168.5834  2.31511278  5424
Epoch: 2025-10-05T10:24Z
TLE epoch observation values (Epoch: 2025-10-05T10:24:17.891Z)
Latitude
-0.00009°
Longitude
86.83497°
Altitude
34,989.406 km
Speed
1.661 km/s
True Right ascension
17h 09m 02s
True Declination
0° 00' 00"
Sunlit
Object was in daylight at epoch
Visualization orbit readout
Latitude
Unknown
Longitude
Unknown
Altitude
Unknown
Speed
Unknown
Apparent Right ascension
Unknown
Apparent Declination
Unknown
Sunlit
N/A
Visualization observer readout
Local Sidereal Time
10:58:15
Azimuth
Unknown
Elevation
Unknown
Doppler factor
Unknown
Orbital elements
Apogee altitude
35,136.588 km
Perigee altitude
389.492 km
Semi-major axis
24,141.177 km
Eccentricity
0.71966
Inclination
25.3574°
RAAN
257.2852°
Arg. of periapsis
182.7076°
True anomaly
177.3145°
Mean anomaly
168.5834°
Eccentric anomaly
173.35492°
Mean motion
0.57864 °/min
Orbital period
622.15 mins
BSTAR
0.00010473
Loading maneuver chart data...
Computing Atmospheric mass density...

Documentation

Showing up to 5 results
|